sat.trackr.live / text

‹ back to catalog

COSMOS 2552 (EKS 5)

NORAD 49503 · 2021-113A

PAYLOAD ACTIVE UNKNOWN

§ Identity

Operator
Country
CIS
Launch date
2021-11-25
Launch site
PLMSC
Launch vehicle
Mass (kg)
RCS (m²)

External: N2YO · Heavens-Above · Gunter

§ Orbital elements

Epoch: 2026-09-19T03:39:08.383104Z

Period
717.90 min
Inclination
62.8249°
Eccentricity
0.6403389
Mean motion
2.00584614 rev/d
Perigee alt
3,173.9 km
Apogee alt
37,186.8 km
Semi-major
26,558.5 km
B*
0.0000e+0
RAAN
198.9468°
Arg perigee
272.3876°
Mean anomaly
20.9742°
Rev number
3,528

§ Raw data

COSMOS 2552 (EKS 5)1 49503U 21113A   26262.15218036 -.00000137  00000+0  00000+0 0  99932 49503  62.8249 198.9468 6403389 272.3876  20.9742  2.00584614 35289

JSON: /api/v1/satellites/49503 · /tle

For live sub-satellite position, see the globe view (requires WebGL).

§ Visibility from observer

Set your observer location to see the next 7 days of passes ≥ 10°. The values pass through the URL so the page stays shareable.

No JS? Fill the form by hand. The geolocation button needs JavaScript.